Zurück zum Katalog

SL-14 DEB

AktivPO
NORAD 47080·DEBRIS·🇷🇺 Russia

Gestartet Aug 15, 1991 von Plesetsk Cosmodrome

Loading…

Nächste Überflüge (nächste 24 Stunden)

TLE

AktuellSource: Space-Track

Epoche: Sep 14, 2026, 06:23 UTC

1 47080U 91056DE  26257.26653541  .00011089  00000-0  54356-2 0  9998
2 47080  82.5114 245.3643 0123210 251.2576 107.5198 14.13834873294587

Verfolge SL-14 DEB in Echtzeit mit AllMySat

Download on the App Store